{"data":{"norad_id":65684,"epoch":"2026-09-20T23:27:34.027488Z","epoch_age_seconds":67507,"freshness":"FRESH","line1":"1 65684U 25212J   26263.97747717  .00027942  00000+0  83406-3 0  9996","line2":"2 65684  53.1570 155.7032 0001246  92.7151 267.3995 15.34437474 57132","mean_motion":15.34437474,"eccentricity":0.0001246,"inclination_deg":53.157,"raan_deg":155.7032,"arg_perigee_deg":92.7151,"mean_anomaly_deg":267.3995,"bstar":0.00083406,"rev_number":5713,"period_min":93.845466133343,"perigee_km":461.73950703242,"apogee_km":463.44421666479,"semimajor_km":6840.7288618486,"source":"CELESTRAK","updated_at":"2026-09-21T09:00:35.686150Z"}}